Regional Weather Roundup
Issued by NWS Sterling, VA

Home | Current Version | Previous Version | Graphics & Text | Print | Product List | Glossary On
Versions: 1 2 3 4 5 6 7 8 9 10 11 12 13 14 15 16 17 18 19 20 21 22 23 24 25 26 27 28 29 30 31 32 33 34 35 36 37 38 39 40 41 42 43 44 45 46 47 48 49 50
000
ASUS41 KLWX 020010
RWRLWX

REGIONAL WEATHER ROUNDUP
NATIONAL WEATHER SERVICE BALTIMORE MD/WASHINGTON DC
700 PM EST SUN MAR 01 2015

Note: "FAIR" indicates few or no clouds below 12,000 feet
with no significant weather and/or obstructions to visibility.
 TC=TEMPERATURE CELSIUS

 * =Non NWS site. Station does not report precipitation (e.g. rain,
    snow, etc.), thunder, or fog.

DCZ001-MDZ009-015-VAZ040>042-051-053>054-020100-
WASHINGTON METRO

CITY           SKY/WX    TMP DP  RH WIND       PRES   REMARKS
WASHINGTON NAT LGT RAIN  34  28  80 S6        30.32F
DULLES         FRZ RAIN  31  28  89 SW5       30.30F
ANDREWS AFB    MIX PCPN  32  32 100 CALM      30.29F
FT BELVOIR     CLOUDY    32  30  93 CALM      30.31F
QUANTICO       MIX PCPN  32  29  88 S8        30.33F WCI  25
COLLEGE PARK*  CLOUDY    32  32 100 CALM      30.31F
LEESBURG*      MIX PCPN  32  32 100 SW3       30.30F
MANASSAS*      CLOUDY    32  32 100 CALM      30.30F
GAITHERSBURG*  CLOUDY    30  27  86 CALM      30.32F

$$

MDZ006>007-011-014-020100-
BALTIMORE METRO

CITY           SKY/WX    TMP DP  RH WIND       PRES   REMARKS
BWI AIRPORT    FRZ RAIN  31  30  96 CALM      30.30F
MD SCIENCE CTR   N/A      1  32 100 MISG      30.31F
MARTIN STATE   FRZ RAIN  30  30 100 SE3       30.33
ANNAPOLIS      FRZ RAIN  30  28  92 MISG      30.32F
FORT MEADE*    CLOUDY    32  32 100 CALM      30.32F

$$

MDZ012-015-019>023-020100-
MARYLAND EASTERN SHORE

CITY           SKY/WX    TMP DP  RH WIND       PRES   REMARKS
OCEAN CITY     MIX PCPN  32  31  96 N3        30.35F FOG
SALISBURY      LGT RAIN  34  31  88 CALM      30.34F FOG
BAY BRIDGE AP* LGT RAIN  30  30 100 CALM      30.33F
EASTON*        CLOUDY    32  32 100 CALM      30.34F FOG

$$

MDZ017>025-020100-
SOUTHERN MARYLAND

CITY           SKY/WX    TMP DP  RH WIND       PRES   REMARKS
PATUXENT RIVER MIX PCPN  30  28  92 S6        30.33F FOG
ST INIGOES     CLOUDY    31  28  89 S3        30.33F
LEONARDTOWN*   CLOUDY    32  30  93 CALM      30.34F

$$

MDZ003>005-020100-
NORTH CENTRAL MARYLAND

CITY           SKY/WX    TMP DP  RH WIND       PRES   REMARKS
FREDERICK*     FRZ RAIN  32  27  80 CALM      30.32F
HAGERSTOWN APT CLOUDY    31  27  85 S6        30.25F
WESTMINSTER*   MIX PCPN  30  28  93 SW6       30.26F

$$

MDZ501>502-020100-
WESTERN MARYLAND

CITY           SKY/WX    TMP DP  RH WIND       PRES   REMARKS
OAKLAND*       CLOUDY    36 N/A N/A SW15G26   30.14F HAZE    WCI  26
CUMBERLAND*    MOCLDY    32  30  93 CALM      30.27F

$$

VAZ025>031-020100-
SHENANDOAH VALLEY

CITY           SKY/WX    TMP DP  RH WIND       PRES   REMARKS
WINCHESTER*    CLOUDY    32  28  86 SE3       30.25S
FRONT ROYAL*   FAIR      32  28  86 CALM      30.24S
LURAY*         CLOUDY    36  34  93 CALM      30.23S
NEW MARKET*    CLOUDY    36  30  80 CALM      30.24R
STAUNTON*      MOCLDY    37  32  81 CALM      30.25S
WAYNESBORO*    MOCLDY    37  32  82 W6        30.23R

$$

WVZ021-048>050-054>055-020100-
EASTERN WEST VIRGINIA PANHANDLE

CITY           SKY/WX    TMP DP  RH WIND       PRES   REMARKS
MARTINSBURG    CLOUDY    32  28  85 CALM      30.25F FOG
PETERSBURG*    NOT AVBL

$$

VAZ036>039-050-020100-
CENTRAL FOOTHILLS

CITY           SKY/WX    TMP DP  RH WIND       PRES   REMARKS
CHARLOTTESVILL CLOUDY    31  29  92 SW8       30.28F FOG     WCI  23
CULPEPER*      CLOUDY    32  30  93 CALM      30.31S
ORANGE*        CLOUDY    32  32 100 CALM      30.31R
GORDONSVILLE*  CLOUDY    31  30  96 SW6       30.30S
WARRENTON*     CLOUDY    33  33 100 CALM      30.30S

$$

VAZ055>057-020100-
NORTH AND CENTRAL PIEDMONT

CITY           SKY/WX    TMP DP  RH WIND       PRES   REMARKS
FREDERICKSBRG* MIX PCPN  33  33 100 S3        30.30F
STAFFORD*      MIX PCPN  31  32 100 S3        30.34F

$$

NCZ024-NYZ072-PAZ021-071-VAZ022-071-020100-
OTHER REGIONAL OBSERVATIONS

CITY           SKY/WX    TMP DP  RH WIND       PRES   REMARKS
NEW YORK CITY  LGT SNOW  28  22  78 CALM      30.33F
PHILADELPHIA   FRZ RAIN  31  28  89 SW5       30.32F
PITTSBURGH     LGT SNOW  33  32  96 SW5       30.18S FOG
ROANOKE        MOCLDY    36  28  73 CALM      30.30F
RICHMOND       CLOUDY    32  30  92 SW5       30.35S FOG
RALEIGH        LGT RAIN  34  32  93 SW3       30.38R FOG

$$

ANZ530>537-020100-
MARINE OBSERVATIONS

STATION/POSITION TIME  TEMP    WIND        PRES
                       AIR SEA DIR/SP/G
                 (UTC) (F)     (DEG/KT/KT) (MB)
THOMAS PT LIGHT  0000   29 31     CALM     1027.7F
BALT KEY BRIDGE  2300   30        CALM     1027.2F
COVE POINT       2300   27        CALM     1027.7F
LEWISETTA        2300   29 33              1027.5F
SOLOMONS ISLAND  2300      32                N/A

$$



USA.gov is the U.S. government's official web portal to all federal, state and local government web resources and services.